[[{"header":{"parameterUnit":"m.s-1","parameterCategory":1,"la1":30.2991,"la2":30.254,"lo1":-89.0895,"lo2":-89.0444,"dy":0.0017,"dx":0.0017,"nx":28,"ny":28,"refTime":"2024-07-29T09:00:00:Z","depth":0,"parameterNumber":2,"parameterNumberName":"U-component_of_WINDS"},"data":[0,0,0,0,0,0,0,0,0,0,0,0,0,0,0,0,0,0,0,0,0,0,0,0,0,0,0,0,0,0,0,0,0,0,0,0,0,0,0,0,0,0,0,0,0,0,0,0,0,0,0,0,0,0,0,0,0,0,5.2093,5.2095,0,5.2227,5.2229,5.223,5.2149,5.2145,5.2141,5.2137,5.2276,5.2283,5.229,0,0,0,0,0,0,0,0,0,0,0,0,0,5.1766,5.1773,5.2093,5.2095,5.2097,5.2227,5.2229,5.2231,5.2149,5.2145,5.214,5.2136,5.2274,5.2282,5.2291,0,0,0,0,0,0,0,0,0,0,0,0,0,5.1905,5.1775,5.2093,5.2072,5.2071,5.2227,5.2229,5.2231,5.215,5.2145,5.2139,5.2133,5.2271,5.2281,5.2292,5.2476,0,0,5.2326,5.233,0,0,0,0,0,0,0,0,5.1897,5.1917,5.2073,5.2073,5.2073,5.2165,5.2164,5.2313,5.2152,5.212,5.2137,5.2131,5.2244,5.2257,5.2295,5.2483,5.2489,5.2327,5.2333,5.2338,5.2341,0,0,0,0,0,0,0,5.1888,5.1911,5.2146,5.2076,5.2076,5.2055,5.2069,5.2192,5.2213,5.2123,5.2117,5.2134,5.2243,5.2284,5.2297,5.2491,5.2326,5.2336,5.2343,5.2347,5.2832,5.2838,0,0,0,0,0,0,5.188,5.1904,5.2142,5.215,5.1969,5.2066,5.2081,5.2142,5.2212,5.2217,5.2139,5.213,5.2268,5.2285,5.2302,5.2519,5.2338,5.2348,5.2355,5.2826,5.2834,5.284,0,0,0,0,0,0,5.1873,5.1902,5.2136,5.2025,5.2054,5.2078,5.2147,5.2147,5.2189,5.2224,5.2227,5.2177,5.2265,5.2286,5.2432,5.2522,5.2353,5.2363,5.2819,5.2828,5.2837,5.2956,0,0,0,0,0,0,5.1864,5.19,5.1971,5.2028,5.206,5.2266,5.2152,5.2154,5.2208,5.2197,5.2261,5.2266,5.2262,5.2417,5.2443,5.2534,5.2372,5.2811,5.2823,5.2834,5.2944,5.2968,5.2989,0,0,0,0,0,5.1853,5.2,5.1975,5.2004,5.2149,5.2271,5.2289,5.2281,5.2215,5.2286,5.2308,5.2264,5.2509,5.2432,5.2462,5.2557,5.2805,5.2819,5.2833,5.2934,5.2963,5.2988,0,0,0,0,0,0,5.1954,5.2007,5.198,5.215,5.2206,5.2257,5.2346,5.2313,5.239,5.2377,5.2364,5.2379,5.253,5.2559,5.2473,5.2737,5.2646,5.2667,5.2713,5.2741,5.2763,5.2752,5.2381,0,0,0,0,0,5.1996,5.2091,5.2132,5.2278,5.2308,5.2322,5.2375,5.2364,5.2422,5.2446,5.2478,5.2537,5.2626,5.2686,5.277,5.2948,5.2959,5.3028,5.3051,5.3069,5.3086,5.3179,5.3209,5.2887,5.2887,5.2887,0,0,5.2084,5.2125,5.2186,5.23,5.2342,5.2439,5.2343,5.2451,5.2523,5.2462,5.26,5.2627,5.2691,5.2853,5.2925,5.2881,5.3178,5.3087,5.3102,5.3109,5.3196,5.3227,5.3254,5.2897,5.2895,5.2893,0,0,5.2293,5.2335,5.2459,5.2503,5.2568,5.2576,5.2606,5.2661,5.2676,5.2815,5.277,5.2855,5.3011,5.3057,5.3101,5.3325,5.3286,5.3354,5.347,5.356,5.3585,5.3608,5.3684,5.3712,5.3371,5.3372,5.3372,0,5.2394,5.2539,5.2527,5.2638,5.2688,5.2636,5.2761,5.2805,5.2894,5.293,5.2879,5.307,5.311,5.328,5.3334,5.3373,5.3404,5.3345,5.3583,5.3605,5.3626,5.3698,5.3727,5.3379,5.3378,5.3377,5.3377,0,5.2658,5.276,5.2852,5.2938,5.2999,5.3116,5.3121,5.3184,5.3167,5.318,5.332,5.3366,5.3457,5.3498,5.3483,5.3665,5.3634,5.3584,5.3492,5.3664,5.3731,5.376,5.339,5.3387,5.3385,5.3383,0,0,5.2935,5.3011,5.3045,5.3081,5.3148,5.3226,5.334,5.3428,5.3481,5.3545,5.3638,5.377,5.3722,5.3772,5.3762,5.3842,5.4011,5.378,5.3781,5.3818,5.421,5.4245,5.4278,5.3987,5.3992,5.3996,5.4203,0,5.3145,5.3343,5.3335,5.352,5.3611,5.3563,5.3661,5.3713,5.3728,5.3807,5.3824,5.3916,5.3848,5.3877,5.3954,5.3974,5.4089,5.396,5.4071,5.4076,5.4054,5.4314,5.4352,5.4545,5.423,5.4234,5.4238,0,5.3417,5.3487,5.3681,5.373,5.3769,5.3858,5.3936,5.4013,5.4069,5.4074,5.4129,5.4105,5.4219,5.4126,5.4281,5.4193,5.4238,5.4255,5.4263,5.427,5.4165,5.4325,5.4607,5.4635,5.428,5.4277,5.4274,0,5.3594,5.3738,5.3871,5.3905,5.3967,5.403,5.4059,5.411,5.4162,5.4231,5.4264,5.4347,5.4391,5.4454,5.4452,5.4385,5.4608,5.4516,5.4614,5.4614,5.4661,5.4657,5.495,5.4696,5.4696,5.4695,5.4694,0,5.3828,5.3948,5.3951,5.4033,5.4164,5.4153,5.4284,5.4306,5.4351,5.4435,5.44,5.448,5.4474,5.4555,5.4555,5.4681,5.4702,5.4708,5.4706,5.4709,5.4708,5.4737,5.4722,5.4703,5.4701,5.47,5.4698,0,5.4048,5.4056,5.4197,5.4244,5.4258,5.4353,5.4392,5.4469,5.4481,5.4588,5.4612,5.463,5.4723,5.4728,5.4836,5.4835,5.4987,5.4972,5.4968,5.4964,5.506,5.5049,5.5379,5.542,5.5142,5.5145,5.5147,0,5.4195,5.4285,5.4341,5.4394,5.4427,5.4514,5.4566,5.4559,5.4615,5.4684,5.4752,5.4841,5.4911,5.5061,5.5083,5.5164,5.5149,5.5259,5.5161,5.516,5.5146,5.5139,5.5146,5.5277,5.528,5.5283,5.5285,0,5.4454,5.4452,5.4529,5.4607,5.4671,5.4732,5.4789,5.4835,5.4833,5.4898,5.4991,5.5046,5.5154,5.5242,5.532,5.5349,5.5316,5.5316,5.5342,5.5345,5.5337,5.5338,5.5016,5.5307,5.5305,5.5304,5.5302,5.5301,5.4639,5.4716,5.4766,5.4852,5.4894,5.4947,5.502,5.504,5.5117,5.5204,5.5195,5.5298,5.5349,5.5451,5.5486,5.5566,5.5528,5.5567,5.5576,5.5585,5.5593,5.5327,5.5581,5.558,5.5579,5.5579,5.5578,0,5.4893,5.4922,5.5002,5.5081,5.5148,5.5112,5.5172,5.523,5.5321,5.5371,5.544,5.5546,5.563,5.5659,5.574,5.5798,5.5785,5.5819,5.5813,5.582,5.5625,5.5592,5.5829,5.5828,5.5828,5.5828,5.5828,5.5828,5.5032,5.5158,5.5163,5.5308,5.5337,5.5436,5.5473,5.5522,5.5561,5.568,5.575,5.5768,5.5809,5.5892,5.5967,5.5973,5.6003,5.6044,5.6043,5.586,5.5834,5.581,5.5779,5.6051,5.6051,5.6231,5.6233,5.6234]},{"header":{"parameterUnit":"m.s-1","parameterCategory":1,"la1":30.2991,"la2":30.254,"lo1":-89.0895,"lo2":-89.0444,"dy":0.0017,"dx":0.0017,"nx":28,"ny":28,"refTime":"2024-07-29T09:00:00:Z","depth":0,"parameterNumber":3,"parameterNumberName":"V-component_of_WINDS"},"data":[0,0,0,0,0,0,0,0,0,0,0,0,0,0,0,0,0,0,0,0,0,0,0,0,0,0,0,0,0,0,0,0,0,0,0,0,0,0,0,0,0,0,0,0,0,0,0,0,0,0,0,0,0,0,0,0,0,0,3.4329,3.433,0,3.4375,3.4376,3.4376,3.4337,3.4335,3.4334,3.4332,3.4378,3.4381,3.4384,0,0,0,0,0,0,0,0,0,0,0,0,0,3.4204,3.4206,3.4329,3.433,3.433,3.4375,3.4376,3.4377,3.4337,3.4335,3.4333,3.4331,3.4377,3.4381,3.4384,0,0,0,0,0,0,0,0,0,0,0,0,0,3.4255,3.4207,3.4329,3.4316,3.4315,3.4375,3.4376,3.4377,3.4338,3.4335,3.4333,3.433,3.4376,3.438,3.4384,3.4459,0,0,3.4397,3.4399,0,0,0,0,0,0,0,0,3.4252,3.4259,3.4317,3.4317,3.4316,3.4348,3.4349,3.4404,3.4338,3.4329,3.4332,3.4329,3.437,3.4375,3.4389,3.4461,3.4463,3.4397,3.44,3.4402,3.4403,0,0,0,0,0,0,0,3.4248,3.4257,3.4347,3.4318,3.4318,3.4307,3.4311,3.4359,3.4363,3.433,3.4327,3.4333,3.4369,3.4385,3.4389,3.4464,3.4397,3.4401,3.4403,3.4405,3.4596,3.4599,0,0,0,0,0,0,3.4246,3.4255,3.4346,3.4349,3.4277,3.4311,3.4316,3.434,3.4362,3.4363,3.4335,3.4331,3.4379,3.4385,3.4391,3.4478,3.4402,3.4405,3.4408,3.4594,3.4597,3.46,0,0,0,0,0,0,3.4244,3.4255,3.4344,3.4301,3.4311,3.4316,3.4343,3.4342,3.4358,3.4366,3.4366,3.435,3.4377,3.4385,3.4442,3.4479,3.4407,3.4411,3.4591,3.4595,3.4598,3.4653,0,0,0,0,0,0,3.4241,3.4254,3.4284,3.4302,3.4314,3.4395,3.4346,3.4345,3.4365,3.436,3.4381,3.4382,3.4376,3.4436,3.4446,3.4483,3.4414,3.4588,3.4593,3.4597,3.4648,3.4658,3.4667,0,0,0,0,0,3.4236,3.4298,3.4285,3.4297,3.4351,3.4398,3.4404,3.4397,3.4368,3.4397,3.4402,3.4381,3.4473,3.4442,3.4453,3.4492,3.4585,3.4591,3.4597,3.4643,3.4656,3.4667,0,0,0,0,0,0,3.4284,3.43,3.4287,3.4356,3.4376,3.4391,3.4427,3.4411,3.4439,3.4433,3.4422,3.4427,3.4486,3.4495,3.446,3.4564,3.4524,3.4533,3.4556,3.4568,3.4578,3.4574,3.4418,0,0,0,0,0,3.4303,3.434,3.4351,3.4411,3.4422,3.4423,3.4443,3.4435,3.4455,3.4463,3.4472,3.4492,3.4525,3.4547,3.4578,3.4649,3.4651,3.4681,3.469,3.4698,3.4705,3.4741,3.4753,3.4619,3.4619,3.4619,0,0,3.4341,3.4355,3.4379,3.4421,3.4436,3.4473,3.443,3.4473,3.45,3.447,3.4523,3.4531,3.4551,3.4615,3.4643,3.4624,3.4743,3.4706,3.4712,3.4715,3.4748,3.4761,3.4772,3.4623,3.4622,3.4622,0,0,3.4431,3.4446,3.4496,3.4511,3.4533,3.4533,3.4545,3.4562,3.4566,3.4619,3.4596,3.4628,3.4686,3.4701,3.4717,3.4809,3.479,3.482,3.487,3.4904,3.4915,3.4924,3.4955,3.4967,3.4827,3.4827,3.4827,0,3.4476,3.4533,3.4524,3.4567,3.4585,3.4559,3.4609,3.4624,3.4655,3.4667,3.4645,3.4716,3.4728,3.4793,3.4816,3.4829,3.4841,3.4817,3.4914,3.4923,3.4932,3.4961,3.4973,3.483,3.483,3.4829,3.4829,0,3.4586,3.4626,3.4664,3.4694,3.4716,3.4763,3.4759,3.4783,3.4773,3.4774,3.4828,3.4841,3.4874,3.4889,3.488,3.4952,3.4939,3.4916,3.4876,3.4948,3.4975,3.4987,3.4835,3.4834,3.4833,3.4832,0,0,3.4709,3.4731,3.4745,3.4757,3.4779,3.4808,3.4853,3.4884,3.4904,3.4925,3.4961,3.5009,3.4987,3.5005,3.4997,3.5027,3.5097,3.5,3.5,3.5016,3.5175,3.5191,3.5205,3.5084,3.5087,3.5088,3.5173,0,3.4798,3.4875,3.4867,3.494,3.4974,3.4949,3.4987,3.5004,3.5006,3.5035,3.5037,3.5071,3.504,3.505,3.5079,3.5082,3.5128,3.5076,3.5116,3.5117,3.511,3.5219,3.5238,3.5317,3.5183,3.5185,3.5187,0,3.4912,3.4937,3.5014,3.5027,3.5041,3.5076,3.5103,3.5131,3.5149,3.5148,3.5166,3.5152,3.5195,3.5154,3.5212,3.5176,3.5192,3.5196,3.5198,3.5201,3.5156,3.5224,3.5342,3.5353,3.5204,3.5202,3.5201,0,3.4991,3.5044,3.5096,3.5107,3.5125,3.5149,3.5158,3.5173,3.5191,3.5214,3.5226,3.5254,3.5269,3.529,3.5283,3.5255,3.5341,3.5301,3.5341,3.5341,3.5359,3.5358,3.548,3.5372,3.5372,3.5371,3.5371,0,3.5091,3.5138,3.5131,3.5163,3.5214,3.5204,3.5255,3.526,3.5273,3.5304,3.5284,3.5313,3.5303,3.5332,3.5327,3.5374,3.5381,3.538,3.5378,3.5382,3.5382,3.5391,3.5385,3.5375,3.5374,3.5373,3.5373,0,3.5188,3.5185,3.524,3.5251,3.5255,3.5292,3.5302,3.5331,3.5331,3.537,3.5379,3.5379,3.5411,3.5406,3.5443,3.5439,3.5497,3.5489,3.5491,3.5489,3.5528,3.5524,3.566,3.5676,3.5558,3.556,3.5561,0,3.5251,3.5286,3.5301,3.5321,3.5331,3.5363,3.5381,3.5371,3.5391,3.5412,3.5438,3.5468,3.5492,3.5545,3.5547,3.5574,3.5566,3.5611,3.5569,3.5571,3.5564,3.5562,3.5564,3.5619,3.5621,3.5622,3.5623,0,3.5363,3.5359,3.5386,3.5413,3.5435,3.5456,3.5474,3.5491,3.5483,3.5506,3.5538,3.5557,3.5593,3.5623,3.5647,3.5655,3.5637,3.5636,3.5646,3.5649,3.5648,3.5647,3.5512,3.5633,3.5632,3.5631,3.563,3.563,3.5443,3.5473,3.5487,3.5518,3.553,3.5547,3.5574,3.5577,3.5604,3.5633,3.5625,3.5662,3.5676,3.5707,3.5717,3.5744,3.5728,3.5743,3.5747,3.575,3.5754,3.5645,3.5749,3.5749,3.5749,3.5748,3.5748,0,3.5552,3.556,3.5588,3.5614,3.5637,3.5618,3.5637,3.5658,3.569,3.5705,3.5728,3.5764,3.5793,3.5797,3.5823,3.5844,3.5836,3.5851,3.5849,3.585,3.5769,3.5756,3.5857,3.5857,3.5857,3.5857,3.5857,3.5857,3.5611,3.5659,3.5657,3.571,3.5717,3.5753,3.5765,3.578,3.5791,3.5832,3.5856,3.5858,3.5868,3.5895,3.5919,3.5919,3.5929,3.5947,3.5944,3.5867,3.5856,3.5846,3.5834,3.595,3.595,3.6023,3.6024,3.6024]}]]